Home   Weather   Zielona Góra   Past weeks

Flag for Poland Past Weather in Zielona Góra, Poland — Yesterday and Last 2 Weeks

Now
35 °F

Partly sunny.


Feels Like: 35 °F
Forecast: 30 / 34 °F
Wind: 2 mph from West

Location: Zielona Gora

Current Time: Dec 3, 2016 at 2:48:29 pm

Latest Report: Dec 3, 2016 at 2:00 pm


Visibility: 16 mi

Pressure: 30.30 "Hg

Humidity: 81%

Dew Point: 29 °F

Location of Zielona GóraLocation

Past Weather in Zielona Góra — Graph

°F

Zielona Góra Temperature Yesterday

Maximum temperature yesterday: 42 °F (at 1:00 am)
Minimum temperature yesterday: 32 °F (at 11:00 pm)
Average temperature yesterday: 37 °F

High & Low Weather Summary for the Past Weeks

 TemperatureHumidityPressure
High56 °F (Nov 18, 1:00 pm)100% (Nov 19, 7:00 pm)30.51 "Hg (Nov 19, 7:00 pm)
Low24 °F (Nov 29, 7:00 am)58% (Nov 30, 10:00 am)29.56 "Hg (Nov 18, 2:00 pm)
Average38 °F91%30.06 "Hg
* Reported Nov 18 1:00 pm — Dec 3 1:00 pm, Zielona Góra, Weather by CustomWeather, © 2016

Note: Actual official high and low records may vary slightly from our data, if they occured in-between our weather recording intervals... More about our weather records

Advertising

Zielona Góra Weather History for the Previous 24 Hours

Scroll right to see more
 ConditionsComfort  
Time TempWeatherWind HumidityBarometerVisibility
1:00 pm
Sat, Dec 3
34 °FPartly sunny.2 mph84%30.30 "Hg12 mi
12:00 pm33 °FPartly sunny.3 mph88%30.30 "Hg12 mi
11:00 am31 °FPassing clouds.2 mph93%30.30 "Hg9 mi
10:00 am29 °FScattered clouds.2 mph96%30.30 "Hg9 mi
9:00 am28 °FPassing clouds.2 mph98%30.28 "Hg7 mi
8:00 am28 °FScattered clouds.2 mph98%30.26 "Hg9 mi
7:00 am28 °FClear.3 mph98%30.24 "Hg9 mi
6:00 am29 °FPassing clouds.3 mph99%30.22 "Hg9 mi
5:00 am28 °FPassing clouds.3 mph99%30.21 "Hg9 mi
4:00 am29 °FPassing clouds.5 mph98%30.20 "Hg22 mi
3:00 am29 °FPassing clouds.5 mph97%30.18 "Hg31 mi
2:00 am30 °FClear.5 mph95%30.17 "Hg31 mi
1:00 am31 °FClear.5 mph94%30.17 "Hg31 mi
12:00 am31 °FClear.5 mph93%30.16 "Hg31 mi
11:00 pm
Fri, Dec 2
32 °FClear.5 mph92%30.15 "Hg31 mi
10:00 pm34 °FPassing clouds.5 mph88%30.14 "Hg31 mi
9:00 pm34 °FPassing clouds.5 mph86%30.13 "Hg31 mi
7:00 pm34 °FOvercast.5 mph84%30.10 "Hg28 mi
6:00 pm34 °FClear.5 mph83%30.09 "Hg28 mi
5:00 pm35 °FPassing clouds.5 mph80%30.08 "Hg31 mi
4:00 pm37 °FPassing clouds.6 mph75%30.06 "Hg31 mi
3:00 pm38 °FPassing clouds.5 mph72%30.05 "Hg31 mi
2:00 pm39 °FPassing clouds.6 mph67%30.03 "Hg31 mi
Weather by CustomWeather, © 2016

See weather overviewHow to use our weather pages